Theta_e
296 297 298 298 299 300 301 301 302 302 302 301 302 302 303 304 306 306 306 304 303 303 302 302 302 303 301 300 299 298 296 296 293 296 288 286 285 286 286 288 288 289 290
294 295 296 296 296 297 297 298 298 299 299 299 298 298 299 300 301 303 303 303 303 302 302 301 301 301 300 300 297 296 296 296 294 292 288 283 284 285 285 285 286 287 288
291 292 292 292 292 293 294 295 295 296 296 296 295 295 295 296 299 300 301 301 301 302 301 299 299 297 296 296 296 295 294 294 293 292 291 283 283 284 283 283 284 285 285
289 289 289 289 289 290 291 291 291 292 292 292 292 292 292 292 292 293 293 296 298 299 298 296 296 295 295 294 294 293 293 291 290 290 289 281 281 281 282 281 280 282 282
287 287 287 287 288 288 288 288 288 289 289 289 289 290 290 289 289 290 290 292 292 293 291 292 292 292 292 294 292 291 290 289 289 287 285 281 280 279 279 280 280 280 281
286 285 285 285 285 286 286 286 287 287 287 288 288 288 288 287 290 292 292 289 289 289 290 290 290 288 289 292 294 294 292 289 288 287 287 283 282 281 281 280 279 278 277
285 284 284 284 283 284 284 285 285 285 286 286 286 286 286 287 290 291 291 289 288 288 288 288 288 287 287 289 290 292 293 293 293 289 287 286 284 281 281 280 280 280 280
283 282 282 282 282 283 282 283 282 283 283 283 284 284 283 285 288 290 290 288 287 287 286 287 287 287 286 286 286 286 287 288 290 290 288 287 286 284 283 283 282 282 281
282 282 281 281 279 279 278 280 281 280 281 280 282 281 280 281 286 287 288 286 286 286 286 286 286 286 287 288 286 284 285 286 289 291 289 288 288 287 285 283 280 280 278
281 281 280 279 276 276 278 278 279 277 279 279 280 280 277 279 284 287 287 286 285 285 285 285 284 285 286 287 285 285 283 284 284 284 285 286 287 286 286 284 282 280 279
279 279 279 278 276 277 276 276 275 275 275 276 276 277 277 277 280 285 287 286 285 285 285 284 284 285 286 287 288 285 284 284 285 284 283 284 284 284 284 284 284 283 280
277 276 276 275 276 277 270 273 272 271 272 274 273 276 278 278 280 283 285 286 287 285 285 284 283 284 285 286 287 288 287 286 284 284 283 282 282 282 282 283 283 283 283
277 274 273 274 276 276 273 275 274 273 272 274 274 275 276 278 278 281 282 284 285 285 284 283 285 285 285 285 287 288 285 284 283 282 282 281 282 282 282 281 281 282 281
273 272 272 272 275 273 275 275 273 274 274 275 274 275 275 276 277 277 278 279 282 284 283 282 283 284 284 285 284 285 284 283 282 282 281 280 281 281 280 280 279 278 278
269 271 273 274 274 276 277 276 276 277 278 277 277 277 276 276 276 283 284 280 283 282 280 280 280 280 282 282 283 283 283 282 282 282 281 279 279 279 278 279 278 277 277
265 269 270 270 272 274 277 277 279 282 284 284 285 284 282 281 285 284 284 284 285 283 280 279 279 279 280 280 280 281 282 281 281 281 280 280 279 278 277 276 276 276 276
261 264 267 268 270 275 277 273 274 276 283 285 283 282 283 283 285 285 284 285 286 282 278 279 279 279 279 279 280 280 278 277 280 280 280 279 279 278 276 275 275 274 273
259 262 264 266 270 275 277 273 272 274 273 275 277 280 280 281 281 282 285 282 281 278 277 276 276 276 275 276 276 276 276 276 275 275 275 275 276 276 275 274 274 272 271
260 263 264 267 271 273 275 274 272 272 272 270 268 274 274 277 277 277 277 274 273 271 270 269 270 270 270 270 271 271 271 270 270 270 269 269 270 272 270 269 269 268 268
261 263 265 266 268 271 275 273 273 272 271 269 269 270 271 270 267 266 266 267 267 267 267 266 266 266 266 267 267 268 267 266 266 266 266 266 266 268 267 266 267 267 266
261 263 264 266 267 269 270 271 272 272 270 268 266 270 272 266 264 263 263 262 263 264 264 263 262 262 262 263 264 264 264 263 263 263 263 263 263 263 264 265 264 263 263
262 263 264 264 266 267 268 269 270 270 268 266 264 266 268 263 262 261 260 259 258 257 258 259 258 258 258 259 261 262 261 261 260 261 261 261 261 261 262 262 262 261 260
261 262 263 264 264 266 266 267 267 267 266 265 264 263 262 261 261 259 259 257 257 256 255 255 255 255 255 255 256 259 259 259 259 259 260 260 260 259 259 260 259 258 258
260 261 262 262 263 264 264 264 264 264 264 263 262 262 261 260 260 259 258 258 257 256 256 256 255 256 255 255 255 255 255 256 255 256 257 257 256 256 256 255 256 255 256
259 259 260 261 261 261 261 262 262 262 262 262 261 261 260 260 260 259 258 258 257 257 256 256 255 255 254 253 253 253 253 257 252 251 250 252 252 251 250 252 252 253 253
257 258 259 259 259 260 260 260 260 261 261 261 261 261 260 260 260 259 259 258 258 258 257 256 255 254 254 253 253 253 253 256 252 250 249 250 250 249 249 250 248 251 252
Wind_Speed
6 5 6 6 5 5 3 3 3 3 4 5 5 5 7 7 6 6 7 5 9 9 9 10 12 11 9 8 8 8 9 9 12 6 2 4 6 8 8 10 9 11 10
5 6 7 6 6 6 5 5 4 5 4 5 5 5 6 7 6 9 10 8 10 11 11 11 12 8 11 9 7 11 10 10 9 13 4 4 5 7 6 8 7 7 9
7 7 6 5 5 5 4 4 5 5 5 5 5 5 6 6 7 9 9 9 10 11 10 10 11 9 10 7 8 9 8 8 9 8 5 1 2 3 2 4 6 7 6
7 7 7 8 6 6 5 5 5 4 5 6 5 5 6 6 7 7 7 8 9 9 9 8 8 9 10 9 10 10 9 8 7 8 5 3 3 3 4 4 5 4 6
6 8 8 6 6 6 7 7 5 5 4 5 6 5 5 5 5 7 7 9 9 9 7 7 8 9 12 13 7 8 8 8 7 8 6 4 5 5 9 6 6 5 3
6 7 7 8 9 9 9 10 9 8 6 5 5 5 6 4 10 12 10 7 7 8 9 8 8 8 11 16 17 17 12 11 12 9 10 8 11 7 6 8 6 6 5
6 5 5 6 6 6 6 6 8 9 9 9 8 7 7 6 10 11 11 6 6 7 7 7 7 6 8 9 13 16 17 21 20 11 12 11 8 9 8 10 10 8 5
5 4 5 6 6 7 6 6 6 3 5 6 7 7 7 7 12 11 10 5 6 8 8 8 9 8 7 7 7 8 9 10 13 10 11 8 8 10 12 11 11 7 6
5 5 5 5 6 6 6 6 5 3 5 4 5 7 5 8 11 11 9 4 6 8 7 7 8 8 11 13 9 10 9 9 11 15 13 13 15 18 13 9 9 9 4
5 6 5 4 4 5 6 6 4 3 6 5 7 4 5 7 12 11 9 3 6 5 5 7 11 9 13 14 9 9 10 8 6 5 5 8 11 12 20 10 10 9 5
5 5 5 5 5 4 5 3 4 6 6 6 6 7 7 5 7 13 12 5 6 6 6 5 4 11 14 15 16 8 9 4 8 5 4 4 6 7 7 5 9 8 6
5 6 6 6 5 4 4 4 4 4 5 7 6 6 5 6 8 10 13 14 12 7 7 4 5 11 12 14 12 10 12 8 5 5 5 4 5 6 6 6 5 4 4
5 5 6 7 7 5 5 6 4 4 4 5 4 5 6 6 4 11 12 12 11 7 3 4 9 10 12 11 11 11 8 4 4 4 4 2 2 3 6 5 5 5 5
6 6 5 6 7 5 3 3 3 4 4 4 4 5 5 5 5 3 4 4 8 4 1 2 5 7 9 8 3 3 3 4 3 3 3 3 3 3 3 2 3 2 2
6 7 7 6 6 8 4 5 4 4 5 4 4 4 5 6 4 10 7 3 3 2 1 2 3 2 1 2 2 3 3 3 4 3 2 3 3 3 2 3 3 2 1
7 6 6 6 6 6 6 6 9 9 9 10 9 7 3 9 15 11 8 4 1 4 2 2 2 3 2 2 2 2 3 3 2 2 2 3 3 3 4 2 2 2 1
6 8 6 7 7 7 5 3 6 6 4 4 5 7 9 10 15 8 5 6 9 3 2 2 2 3 2 3 4 4 3 3 4 4 3 3 3 3 4 4 3 2 2
6 9 7 7 7 7 6 5 4 4 3 3 4 4 9 9 10 11 3 4 4 5 3 3 3 4 5 5 5 4 5 5 5 5 5 4 3 3 3 3 3 1 2
7 6 5 6 7 9 8 5 4 3 3 2 3 3 6 8 8 11 12 4 3 4 4 4 4 4 4 4 4 5 5 5 4 4 4 4 4 3 3 3 3 2 3
6 9 8 7 7 7 6 5 4 4 3 3 1 1 3 3 3 3 4 4 5 4 4 4 4 4 4 4 4 4 4 5 5 4 4 4 4 3 3 2 2 2 1
6 7 8 7 6 5 5 4 4 3 4 3 2 2 6 3 3 2 3 4 4 3 3 3 3 4 3 3 3 4 5 4 4 4 3 3 2 3 2 2 2 2 2
6 6 6 6 5 5 4 3 2 1 3 3 2 3 8 4 3 3 4 3 3 3 2 3 3 3 2 3 2 3 4 3 2 2 3 2 2 2 2 2 1 1 1
6 7 6 5 4 5 3 2 0 2 4 4 3 3 3 3 3 3 3 2 2 2 1 2 3 2 1 2 2 2 3 2 2 1 2 2 2 2 2 2 2 2 2
6 6 5 4 4 3 2 2 2 2 3 3 3 3 3 2 2 2 1 1 1 1 1 1 1 1 1 0 0 0 0 1 1 1 2 2 3 2 2 1 2 2 2
5 5 4 4 3 3 3 3 3 2 2 2 2 2 2 2 2 1 1 1 1 1 2 2 2 3 3 4 4 4 4 3 4 3 2 2 3 4 2 1 2 2 2
4 4 4 3 3 3 3 3 2 2 1 1 0 0 0 1 1 2 2 3 3 3 3 2 3 4 4 4 5 5 5 6 5 7 4 3 4 3 2 3 3 2 3
Wind_Direction
44 40 40 25 13 13 4 336 301 282 259 245 241 239 243 240 226 217 220 204 215 218 212 214 222 219 221 217 212 217 226 228 253 250 177 179 184 199 203 207 213 216 222
41 54 54 33 18 15 357 342 326 285 271 255 247 237 247 245 228 235 239 228 232 234 231 223 230 221 226 223 208 218 221 221 238 256 183 199 206 208 204 204 211 216 219
30 42 43 30 22 8 354 346 337 317 301 294 276 262 253 247 245 242 240 235 235 239 232 223 229 216 224 222 215 218 225 230 228 243 238 127 190 177 174 207 204 210 208
18 38 34 17 2 352 348 352 346 335 313 304 283 267 257 247 240 239 237 243 242 240 235 226 225 220 226 222 227 222 222 223 223 231 235 171 166 182 187 191 198 193 191
24 32 17 356 355 357 0 353 344 348 332 322 305 291 277 256 249 243 234 239 240 242 233 229 226 225 225 228 223 222 210 218 216 220 212 179 180 176 199 181 199 171 180
27 25 6 5 0 360 355 352 350 344 338 330 316 302 294 273 274 264 248 241 241 242 248 246 241 233 240 239 238 233 211 214 221 215 224 218 213 198 172 178 164 169 196
21 10 5 356 348 346 338 338 345 340 338 334 330 332 314 297 299 280 255 238 243 245 250 256 261 247 241 245 250 248 242 226 226 220 228 220 213 185 175 179 180 186 186
11 357 356 354 346 342 342 341 331 313 318 314 312 313 308 300 306 290 273 246 249 249 244 240 240 248 236 233 243 247 243 237 230 227 222 222 208 181 188 187 178 149 105
9 353 342 336 331 330 328 322 309 309 315 298 301 305 298 295 305 299 290 261 249 249 247 244 248 254 250 251 240 242 246 239 227 224 217 202 201 190 173 149 157 155 139
353 332 319 305 286 299 301 308 288 296 291 302 307 290 293 292 306 307 299 260 266 263 255 252 244 252 259 262 253 247 247 233 190 172 191 198 198 186 175 177 161 165 134
327 323 316 305 299 283 297 281 298 311 309 309 311 309 297 266 287 303 298 278 267 275 264 267 249 264 265 257 254 240 234 189 207 180 174 164 157 166 172 164 176 172 159
328 320 314 308 309 298 278 288 293 310 315 316 320 312 308 303 296 301 304 298 292 275 265 263 273 281 278 272 267 253 219 196 195 176 170 165 169 165 152 150 162 130 103
316 298 301 304 302 294 296 298 313 312 306 305 308 313 315 310 300 307 310 307 302 291 254 273 288 291 289 283 285 251 206 174 167 163 154 140 121 101 104 94 88 88 87
305 300 297 289 298 271 278 274 285 288 293 287 303 310 313 309 308 318 308 316 316 307 21 335 304 305 294 273 270 217 122 138 140 136 124 104 103 112 106 100 120 141 106
307 303 302 296 301 306 286 283 275 261 246 270 275 272 299 308 290 309 308 292 306 137 57 335 345 324 2 18 89 99 115 133 139 132 131 134 133 132 108 125 100 113 142
308 298 296 299 295 288 295 302 294 278 295 295 290 296 267 263 298 337 344 333 232 134 49 14 352 360 24 33 58 104 113 136 133 139 130 136 136 139 121 91 92 118 154
288 299 299 293 287 287 290 289 297 318 311 65 32 9 10 358 355 344 342 320 145 87 63 36 20 11 18 36 40 44 66 52 63 66 84 101 112 106 120 129 117 110 119
293 284 283 285 281 279 271 262 241 250 258 269 316 355 11 8 7 6 26 31 90 34 42 42 50 44 39 43 43 50 57 51 52 62 70 65 68 112 111 106 102 130 186
291 283 279 282 283 287 282 269 249 246 244 246 328 340 7 358 21 27 50 67 89 71 52 54 45 51 56 58 54 54 64 67 70 78 66 64 57 72 74 79 106 107 129
291 284 285 291 288 288 282 268 253 234 196 167 134 318 342 24 42 23 31 62 81 76 76 78 61 59 55 56 65 80 76 65 67 65 63 69 65 76 100 104 91 129 153
294 298 291 290 283 283 281 268 246 194 164 142 95 11 52 104 105 81 72 59 74 74 70 80 76 68 58 55 62 71 78 80 72 80 80 69 64 74 63 76 124 132 153
287 291 291 287 293 290 283 292 290 152 134 134 102 48 87 86 99 95 82 71 59 60 38 78 76 68 58 72 70 88 89 93 87 93 100 106 118 127 142 129 154 154 154
303 303 302 304 307 305 308 321 262 139 142 139 137 123 104 99 96 90 97 102 92 84 58 94 107 85 33 42 22 44 118 134 138 140 138 141 143 151 156 156 158 164 177
315 315 319 320 324 328 334 1 45 78 110 117 119 110 104 102 98 100 115 147 157 151 177 139 125 139 148 251 79 334 27 134 145 170 161 158 152 154 153 157 172 176 172
331 335 340 343 352 349 356 11 35 50 74 98 109 113 123 136 154 174 192 208 219 212 217 206 196 203 212 209 214 211 216 188 180 168 155 147 163 171 172 188 173 185 188
333 337 341 346 353 359 3 7 14 15 22 48 91 170 220 251 244 237 232 231 240 241 247 241 237 235 244 246 248 241 228 221 201 196 180 177 175 186 193 194 184 196 193